STARLINK-11640, 63314

Orbit data source: Space-Track

STARLINK-11640, 63314 is a payload satellite owned by SpaceX/Seattle (US) in LEO that was launched on Tue, 18 Mar 2025 UTC via an FALCON 9 launch vehicle from the Air Force Eastern Test Range (AFETR). Payload-class satellites include a variety of spacecraft equipped with specific instruments for various scientific and technological missions. These include communications satellites like Starlink; space stations such as the ISS; scientific satellites like the Hubble; Earth observation satellites from companies like Planet Labs, Umbra, and HawkEye 360; GPS; miniature CubeSats for education and research; and military/defense satellites.

Loading next visibility...
Identifier
63314, 2025-057H
Orbit
LEO
Country
Flag of USUS
Related business
Manufacturer
SpaceX/Seattle
Mission
Operational Commercial Communications
Bus & Motor
STARLINK V2MD, Unknown motor
Mass
960 kg wet, ~910 kg dry
Launch date (UTC)
2025-03-18 (7 months ago)
Launch vehicle
FALCON 9
Launch site
Air Force Eastern Test Range (AFETR)
Object type
Payload
Rocket body
Debris
Shape & HBR
Box + 2 Pan, 18.1 m
Radar Cross Section
36.964 m², Large (>1 m²)

Expand to show TLE details & history
Last TLE update: 1 day ago

TLE from 1 day ago
0 STARLINK-11640
1 63314U 25057H   25302.50095599  .00263062  00000-0  19818-2 0  9998
2 63314  42.9997 335.4177 0001942 297.1293  62.9377 15.70930641 36546
Epoch: 2025-10-29T12:01Z
TLE epoch observation values (Epoch: 2025-10-29T12:01:22.597Z)
Latitude
0.00001°
Longitude
117.00037°
Altitude
355.412 km
Speed
7.698 km/s
True Right ascension
22h 21m 40s
True Declination
0° 00' 00"
Sunlit
Object was in full shadow at epoch
Visualization orbit readout
Latitude
Unknown
Longitude
Unknown
Altitude
Unknown
Speed
Unknown
Apparent Right ascension
Unknown
Apparent Declination
Unknown
Sunlit
N/A
Visualization observer readout
Local Sidereal Time
10:29:53
Azimuth
Unknown
Elevation
Unknown
Doppler factor
Unknown
Orbital elements
Apogee altitude
359.526 km
Perigee altitude
356.91 km
Semi-major axis
6,736.355 km
Eccentricity
0.00019
Inclination
42.9997°
RAAN
335.4177°
Arg. of periapsis
297.1293°
True anomaly
62.95752°
Mean anomaly
62.9377°
Eccentric anomaly
62.94761°
Mean motion
3.9256 °/min
Orbital period
91.71 mins
BSTAR
0.0019818
Loading maneuver chart data...
Computing Atmospheric mass density...
Loading historical data...
Loading historical data...
Loading historical data...
Loading historical data...
Loading historical data...
Loading historical data...
Loading historical data...

Documentation

Showing up to 5 results
|